Previsão horária em 3 internacional

Hoje, 27 Outubro, Terça-feira

Tempo Temperatura Precipitação Vento Pressão Humidade
00:00 +6°C° 0 mm 5 m/s 752 mmHg 82%
01:00 +6°C° 0 mm 4 m/s 752 mmHg 83%
02:00 +5°C° 0 mm 5 m/s 752 mmHg 82%
03:00 +5°C° 0 mm 5 m/s 752 mmHg 82%
04:00 +3°C° 0 mm 5 m/s 752 mmHg 83%
05:00 +2°C° 0 mm 5 m/s 753 mmHg 74%
06:00 +2°C° 0 mm 5 m/s 753 mmHg 64%
07:00 +1°C° 0 mm 5 m/s 753 mmHg 55%
08:00 +2°C° 0 mm 6 m/s 753 mmHg 50%
09:00 +3°C° 0 mm 7 m/s 754 mmHg 45%
10:00 +4°C° 0 mm 7 m/s 755 mmHg 39%
11:00 +4°C° 0 mm 7 m/s 755 mmHg 36%
12:00 +5°C° 0 mm 8 m/s 755 mmHg 33%
13:00 +6°C° 0 mm 8 m/s 755 mmHg 29%
14:00 +5°C° 0 mm 7 m/s 755 mmHg 30%
15:00 +5°C° 0 mm 7 m/s 756 mmHg 30%
16:00 +5°C° 0 mm 7 m/s 756 mmHg 30%
17:00 +3°C° 0 mm 6 m/s 756 mmHg 34%
18:00 +2°C° 0 mm 5 m/s 757 mmHg 39%
19:00 0°C° 0 mm 4 m/s 757 mmHg 44%
20:00 0°C° 0 mm 4 m/s 758 mmHg 46%
21:00 -1°C° 0 mm 4 m/s 758 mmHg 49%
22:00 0°C° 0 mm 3 m/s 758 mmHg 52%
23:00 0°C° 0 mm 3 m/s 759 mmHg 54%

Amanhã, 28 Outubro, Quarta-feira

Tempo Temperatura Precipitação Vento Pressão Humidade
00:00 0°C° 0 mm 3 m/s 759 mmHg 56%
01:00 -1°C° 0 mm 3 m/s 759 mmHg 58%
02:00 -1°C° 0 mm 3 m/s 760 mmHg 61%
03:00 -1°C° 0 mm 3 m/s 761 mmHg 64%
04:00 -2°C° 0 mm 3 m/s 761 mmHg 67%
05:00 -2°C° 0 mm 3 m/s 762 mmHg 71%
06:00 -2°C° 0 mm 3 m/s 762 mmHg 74%
07:00 -2°C° 0 mm 3 m/s 763 mmHg 77%
08:00 -1°C° 0 mm 4 m/s 763 mmHg 69%
09:00 0°C° 0 mm 4 m/s 764 mmHg 61%
10:00 +3°C° 0 mm 4 m/s 764 mmHg 53%
11:00 +4°C° 0 mm 4 m/s 764 mmHg 50%
12:00 +5°C° 0 mm 4 m/s 764 mmHg 47%
13:00 +6°C° 0 mm 4 m/s 765 mmHg 43%
14:00 +6°C° 0 mm 4 m/s 765 mmHg 44%
15:00 +6°C° 0 mm 4 m/s 765 mmHg 44%
16:00 +5°C° 0 mm 4 m/s 766 mmHg 45%
17:00 +4°C° 0 mm 3 m/s 766 mmHg 51%
18:00 +2°C° 0 mm 3 m/s 766 mmHg 57%
19:00 0°C° 0 mm 3 m/s 767 mmHg 63%
20:00 0°C° 0 mm 3 m/s 767 mmHg 66%
21:00 -1°C° 0 mm 2 m/s 767 mmHg 69%
22:00 -1°C° 0 mm 2 m/s 767 mmHg 72%
23:00 -2°C° 0 mm 2 m/s 767 mmHg 74%

Depois de amanhã, 29 Outubro, Quinta-feira

Tempo Temperatura Precipitação Vento Pressão Humidade
00:00 -2°C° 0 mm 2 m/s 768 mmHg 75%
01:00 -3°C° 0 mm 2 m/s 768 mmHg 76%
02:00 -3°C° 0 mm 2 m/s 768 mmHg 77%
03:00 -3°C° 0 mm 2 m/s 768 mmHg 78%
04:00 -2°C° 0 mm 1 m/s 768 mmHg 78%
05:00 -3°C° 0 mm 2 m/s 768 mmHg 76%
06:00 -2°C° 0 mm 2 m/s 768 mmHg 73%
07:00 -2°C° 0 mm 2 m/s 769 mmHg 70%
08:00 +1°C° 0 mm 2 m/s 769 mmHg 60%
09:00 +3°C° 0 mm 3 m/s 769 mmHg 50%
10:00 +5°C° 0 mm 3 m/s 769 mmHg 41%
11:00 +7°C° 0 mm 3 m/s 769 mmHg 35%
12:00 +9°C° 0 mm 3 m/s 769 mmHg 29%
13:00 +10°C° 0 mm 3 m/s 768 mmHg 24%
14:00 +10°C° 0 mm 3 m/s 768 mmHg 24%
15:00 +9°C° 0 mm 3 m/s 768 mmHg 25%
16:00 +9°C° 0 mm 3 m/s 768 mmHg 25%
17:00 +7°C° 0 mm 3 m/s 768 mmHg 29%
18:00 +5°C° 0 mm 4 m/s 768 mmHg 33%
19:00 +3°C° 0 mm 4 m/s 768 mmHg 37%
20:00 +3°C° 0 mm 4 m/s 768 mmHg 39%
21:00 +1°C° 0 mm 4 m/s 768 mmHg 41%
22:00 +1°C° 0 mm 4 m/s 768 mmHg 43%
23:00 0°C° 0 mm 4 m/s 767 mmHg 44%

30 Outubro, Sexta-feira

Tempo Temperatura Precipitação Vento Pressão Humidade
00:00 0°C° 0 mm 4 m/s 767 mmHg 45%
01:00 0°C° 0 mm 4 m/s 766 mmHg 45%
02:00 0°C° 0 mm 4 m/s 766 mmHg 46%
03:00 0°C° 0 mm 4 m/s 766 mmHg 47%
04:00 -1°C° 0 mm 4 m/s 766 mmHg 48%
05:00 0°C° 0 mm 4 m/s 766 mmHg 48%
06:00 0°C° 0 mm 4 m/s 766 mmHg 48%
07:00 0°C° 0 mm 5 m/s 766 mmHg 48%
08:00 +2°C° 0 mm 5 m/s 766 mmHg 41%
09:00 +5°C° 0 mm 6 m/s 766 mmHg 34%
10:00 +9°C° 0 mm 7 m/s 765 mmHg 27%
11:00 +10°C° 0 mm 7 m/s 765 mmHg 26%
12:00 +11°C° 0 mm 7 m/s 764 mmHg 24%
13:00 +12°C° 0 mm 8 m/s 764 mmHg 23%
14:00 +12°C° 0 mm 7 m/s 764 mmHg 24%
15:00 +11°C° 0 mm 7 m/s 763 mmHg 25%
16:00 +11°C° 0 mm 6 m/s 763 mmHg 26%
17:00 +9°C° 0 mm 6 m/s 763 mmHg 30%
18:00 +8°C° 0 mm 6 m/s 763 mmHg 34%
19:00 +6°C° 0 mm 5 m/s 763 mmHg 38%
20:00 +6°C° 0 mm 5 m/s 763 mmHg 39%
21:00 +6°C° 0 mm 5 m/s 763 mmHg 40%
22:00 +5°C° 0 mm 5 m/s 763 mmHg 41%
23:00 +5°C° 0 mm 5 m/s 763 mmHg 42%

31 Outubro, Sábado

Tempo Temperatura Precipitação Vento Pressão Humidade
00:00 +3°C° 0 mm 5 m/s 762 mmHg 44%
01:00 +3°C° 0 mm 5 m/s 762 mmHg 45%
02:00 +3°C° 0 mm 5 m/s 762 mmHg 46%
03:00 +3°C° 0 mm 5 m/s 762 mmHg 47%
04:00 +2°C° 0 mm 6 m/s 762 mmHg 48%
05:00 +2°C° 0 mm 5 m/s 762 mmHg 49%
06:00 +2°C° 0 mm 5 m/s 762 mmHg 50%
07:00 +2°C° 0 mm 5 m/s 762 mmHg 51%
08:00 +5°C° 0 mm 6 m/s 762 mmHg 43%
09:00 +8°C° 0 mm 7 m/s 761 mmHg 36%
10:00 +11°C° 0 mm 8 m/s 761 mmHg 29%
11:00 +12°C° 0 mm 8 m/s 761 mmHg 26%
12:00 +13°C° 0 mm 8 m/s 761 mmHg 24%
13:00 +16°C° 0 mm 8 m/s 760 mmHg 21%
14:00 +15°C° 0 mm 7 m/s 760 mmHg 22%
15:00 +14°C° 0 mm 7 m/s 760 mmHg 23%
16:00 +14°C° 0 mm 6 m/s 760 mmHg 24%
17:00 +11°C° 0 mm 6 m/s 760 mmHg 28%
18:00 +9°C° 0 mm 5 m/s 760 mmHg 32%
19:00 +7°C° 0 mm 5 m/s 760 mmHg 35%
20:00 +7°C° 0 mm 5 m/s 760 mmHg 36%
21:00 +6°C° 0 mm 5 m/s 760 mmHg 38%
22:00 +6°C° 0 mm 5 m/s 760 mmHg 39%
23:00 +5°C° 0 mm 5 m/s 760 mmHg 41%

1 Novembro, Domingo

Tempo Temperatura Precipitação Vento Pressão Humidade
00:00 +5°C° 0 mm 5 m/s 760 mmHg 43%
01:00 +5°C° 0 mm 5 m/s 759 mmHg 44%
02:00 +3°C° 0 mm 5 m/s 759 mmHg 47%
03:00 +3°C° 0 mm 5 m/s 759 mmHg 49%
04:00 +2°C° 0 mm 5 m/s 759 mmHg 51%
05:00 +2°C° 0 mm 5 m/s 759 mmHg 52%
06:00 +2°C° 0 mm 5 m/s 760 mmHg 53%
07:00 +2°C° 0 mm 5 m/s 760 mmHg 54%
08:00 +6°C° 0 mm 5 m/s 760 mmHg 47%
09:00 +8°C° 0 mm 5 m/s 760 mmHg 39%
10:00 +11°C° 0 mm 6 m/s 760 mmHg 31%
11:00 +14°C° 0 mm 6 m/s 760 mmHg 28%
12:00 +15°C° 0 mm 6 m/s 760 mmHg 24%
13:00 +17°C° 0 mm 6 m/s 759 mmHg 21%
14:00 +16°C° 0 mm 5 m/s 759 mmHg 22%
15:00 +15°C° 0 mm 5 m/s 759 mmHg 24%
16:00 +14°C° 0 mm 4 m/s 759 mmHg 25%
17:00 +12°C° 0 mm 4 m/s 759 mmHg 29%
18:00 +11°C° 0 mm 4 m/s 760 mmHg 33%
19:00 +8°C° 0 mm 4 m/s 760 mmHg 36%
20:00 +7°C° 0 mm 4 m/s 760 mmHg 37%
21:00 +7°C° 0 mm 4 m/s 760 mmHg 39%
22:00 +6°C° 0 mm 4 m/s 761 mmHg 40%
23:00 +6°C° 0 mm 4 m/s 761 mmHg 40%
Mostrar mais